Weather History for Adak, AK

Change the Weather History Date:

Tuesday, January 22, 2013

  Actual Average Record
Temperature  
Mean Temperature 26 °F -  
Max Temperature 35 °F 36 °F 43 °F (1969)
Min Temperature 17 °F 23 °F 9 °F (1983)
Degree Days  
Heating Degree Days 39    
Moisture  
Dew Point 24 °F    
Average Humidity 82    
Maximum Humidity 93    
Minimum Humidity 60    
Precipitation  
Precipitation 0.00 in - - ()
Sea Level Pressure  
Sea Level Pressure 29.42 in    
Wind  
Wind Speed 9 mph (NNE)    
Max Wind Speed 22 mph    
Max Gust Speed 28 mph    
Visibility 8 miles    
Events      
Averages and records for this station are not official NWS values.
T = Trace of Precipitation, MM = Missing Value Source: NWS Daily Summary

Daily Weather History Graph

Daily Weather History Graph

Search for Another Location

Airport:

Trip Planner

Search our weather history database for the weather conditions in past years. The results will help you decide how hot, cold, wet, or windy it might be!

Date:

Astronomy

Jan. 22, 2013 Rise Set
Actual Time 9:39 AM HAST 6:18 PM HAST
Civil Twilight 9:01 AM HAST 6:55 PM HAST
Nautical Twilight 8:19 AM HAST 7:37 PM HAST
Astronomical Twilight 7:40 AM HAST 8:17 PM HAST
Moon 2:45 PM HAST (1/22) 6:18 AM HAST (1/22)
Length of Visible Light 9h 54m
Length of Day
8h 38m
Waxing Gibbous, 84% of the Moon is Illuminated
Jan 22
Waxing Gibbous
Jan 26
Full
Feb 3
Last Quarter
Feb 9
New
Feb 17
First Quarter

Hourly Weather History & Observations

Time (HAST) Temp. Windchill Dew Point Humidity Pressure Visibility Wind Dir Wind Speed Gust Speed Precip Events Conditions
12:16 AM 17.6 °F 8.2 °F 15.8 °F 93% 29.51 in 10.0 mi SW 6.9 mph - N/A   Clear
12:36 AM 17.6 °F 9.3 °F 15.8 °F 93% 29.51 in 10.0 mi SW 5.8 mph - N/A   Clear
12:56 AM 19.4 °F - 17.6 °F 93% 29.50 in 10.0 mi Calm Calm - N/A   Clear
1:16 AM 19.4 °F - 17.6 °F 93% 29.50 in 10.0 mi Calm Calm - N/A   Clear
1:36 AM 19.4 °F - 15.8 °F 86% 29.49 in 10.0 mi Calm Calm - N/A   Clear
1:56 AM 17.6 °F 10.7 °F 12.2 °F 79% 29.49 in 10.0 mi WSW 4.6 mph - N/A   Clear
2:16 AM 17.6 °F 9.3 °F 14.0 °F 86% 29.48 in 10.0 mi WSW 5.8 mph - N/A   Clear
2:36 AM 17.6 °F 12.3 °F 15.8 °F 93% 29.48 in 10.0 mi SW 3.5 mph - N/A   Clear
2:56 AM 17.6 °F - 15.8 °F 93% 29.47 in 10.0 mi Calm Calm - N/A   Clear
3:16 AM 19.4 °F - 15.8 °F 86% 29.46 in 10.0 mi Calm Calm - N/A   Partly Cloudy
3:36 AM 19.4 °F 12.8 °F 15.8 °F 86% 29.47 in 10.0 mi WSW 4.6 mph - N/A   Partly Cloudy
3:56 AM 19.4 °F 12.8 °F 17.6 °F 93% 29.47 in 10.0 mi WSW 4.6 mph - N/A   Scattered Clouds
4:16 AM 21.2 °F 14.9 °F 17.6 °F 86% 29.47 in 10.0 mi SW 4.6 mph - N/A   Partly Cloudy
4:36 AM 19.4 °F 14.3 °F 17.6 °F 93% 29.46 in 10.0 mi WSW 3.5 mph - N/A   Scattered Clouds
4:56 AM 21.2 °F - 17.6 °F 86% 29.46 in 10.0 mi Calm Calm - N/A   Mostly Cloudy
5:16 AM 21.2 °F - 19.4 °F 93% 29.45 in 10.0 mi Calm Calm - N/A   Overcast
5:36 AM 21.2 °F 14.9 °F 19.4 °F 93% 29.44 in 10.0 mi North 4.6 mph - N/A   Overcast
5:56 AM 26.6 °F 18.2 °F 21.2 °F 80% 29.44 in 10.0 mi North 8.1 mph - N/A   Overcast
6:16 AM 26.6 °F 18.2 °F 23.0 °F 86% 29.43 in 10.0 mi North 8.1 mph - N/A   Overcast
6:36 AM 26.6 °F 17.5 °F 23.0 °F 86% 29.42 in 10.0 mi North 9.2 mph - N/A   Overcast
6:56 AM 28.4 °F 20.4 °F 24.8 °F 86% 29.42 in 10.0 mi North 8.1 mph - N/A   Overcast
7:16 AM 30.2 °F 21.9 °F 26.6 °F 86% 29.41 in 8.0 mi NE 9.2 mph - N/A   Overcast
7:36 AM 30.2 °F 21.9 °F 24.8 °F 80% 29.41 in 10.0 mi NNE 9.2 mph - N/A   Mostly Cloudy
7:56 AM 30.2 °F 21.9 °F 24.8 °F 80% 29.40 in 9.0 mi North 9.2 mph - N/A   Overcast
8:16 AM 28.4 °F 20.4 °F 24.8 °F 86% 29.40 in 10.0 mi North 8.1 mph - N/A   Overcast
8:36 AM 30.2 °F 22.6 °F 24.8 °F 80% 29.40 in 10.0 mi ENE 8.1 mph - N/A   Overcast
8:56 AM 33.8 °F 24.8 °F 24.8 °F 70% 29.40 in 10.0 mi East 12.7 mph - N/A   Overcast
9:16 AM 33.8 °F 27.0 °F 23.0 °F 65% 29.40 in 10.0 mi NNE 8.1 mph - N/A   Overcast
9:36 AM 33.8 °F 25.3 °F 23.0 °F 65% 29.40 in 10.0 mi NE 11.5 mph - N/A   Overcast
9:56 AM 33.8 °F 25.3 °F 23.0 °F 65% 29.40 in 10.0 mi NE 11.5 mph - N/A   Overcast
10:16 AM 32.0 °F 23.6 °F 23.0 °F 69% 29.39 in 10.0 mi NNE 10.4 mph - N/A   Overcast
10:36 AM 32.0 °F 21.2 °F 24.8 °F 75% 29.39 in 10.0 mi NNE 16.1 mph - N/A   Overcast
10:56 AM 33.8 °F 24.3 °F 23.0 °F 65% 29.40 in 10.0 mi ENE 13.8 mph - N/A   Overcast
11:16 AM 33.8 °F 23.9 °F 23.0 °F 65% 29.40 in 10.0 mi NE 15.0 mph - N/A   Overcast
11:36 AM 33.8 °F 23.9 °F 24.8 °F 70% 29.40 in 10.0 mi East 15.0 mph - N/A   Overcast
11:56 AM 33.8 °F 24.8 °F 24.8 °F 70% 29.39 in 10.0 mi NE 12.7 mph 19.6 mph N/A   Overcast
12:16 PM 35.6 °F 27.1 °F 23.0 °F 60% 29.39 in 10.0 mi NE 12.7 mph - N/A   Overcast
12:36 PM 35.6 °F 26.2 °F 24.8 °F 65% 29.39 in 10.0 mi NE 15.0 mph 23.0 mph N/A   Overcast
12:56 PM 35.6 °F 25.9 °F 26.6 °F 70% 29.38 in 10.0 mi NE 16.1 mph - N/A   Overcast
1:16 PM 35.6 °F 24.8 °F 26.6 °F 70% 29.38 in 10.0 mi NE 19.6 mph - N/A   Mostly Cloudy
1:36 PM 33.8 °F 24.3 °F 26.6 °F 75% 29.38 in 5.0 mi ENE 13.8 mph - N/A   Overcast
1:56 PM 33.8 °F 23.5 °F 26.6 °F 75% 29.37 in 3.0 mi NE 16.1 mph - N/A   Overcast
2:16 PM 33.8 °F 23.9 °F 28.4 °F 81% 29.37 in 3.0 mi NE 15.0 mph 24.2 mph N/A   Overcast
2:36 PM 33.8 °F 22.8 °F 28.4 °F 81% 29.36 in 3.0 mi NNE 18.4 mph - N/A   Overcast
2:56 PM 35.6 °F 24.8 °F 28.4 °F 75% 29.36 in 9.0 mi NNE 19.6 mph 24.2 mph N/A   Overcast
3:16 PM 35.6 °F 24.2 °F 28.4 °F 75% 29.36 in 9.0 mi NE 21.9 mph 26.5 mph N/A   Overcast
3:36 PM 35.6 °F 24.8 °F 28.4 °F 75% 29.36 in 9.0 mi NNE 19.6 mph 25.3 mph N/A   Overcast
3:56 PM 33.8 °F 23.2 °F 28.4 °F 81% 29.36 in 5.0 mi NNE 17.3 mph 26.5 mph N/A   Overcast
4:16 PM 33.8 °F 22.8 °F 30.2 °F 87% 29.36 in 1.5 mi NE 18.4 mph 26.5 mph N/A   Overcast
4:36 PM 33.8 °F 22.2 °F 30.2 °F 87% 29.36 in 2.5 mi NE 20.7 mph 27.6 mph N/A   Overcast
4:56 PM 33.8 °F 22.5 °F 30.2 °F 87% 29.37 in 3.0 mi NE 19.6 mph 25.3 mph N/A   Overcast
5:16 PM 33.8 °F 21.9 °F 30.2 °F 87% 29.37 in 3.0 mi NE 21.9 mph 26.5 mph N/A   Overcast
5:36 PM 33.8 °F 22.2 °F 30.2 °F 87% 29.38 in 3.0 mi NNE 20.7 mph 25.3 mph N/A   Overcast
5:56 PM 33.8 °F 21.9 °F 30.2 °F 87% 29.38 in 4.0 mi NE 21.9 mph 25.3 mph N/A   Overcast
6:16 PM 33.8 °F 21.9 °F 30.2 °F 87% 29.39 in 3.0 mi NNE 21.9 mph 25.3 mph N/A   Overcast
6:36 PM 33.8 °F 21.9 °F 30.2 °F 87% 29.40 in 1.5 mi NE 21.9 mph 26.5 mph N/A   Overcast
6:56 PM 33.8 °F 22.2 °F 30.2 °F 87% 29.40 in 2.5 mi NNE 20.7 mph 26.5 mph N/A   Overcast
7:16 PM 33.8 °F 22.5 °F 30.2 °F 87% 29.40 in 3.0 mi NNE 19.6 mph 26.5 mph N/A   Overcast
7:36 PM 33.8 °F 22.8 °F 30.2 °F 87% 29.41 in 4.0 mi NNE 18.4 mph - N/A   Overcast
7:56 PM 33.8 °F 23.9 °F 30.2 °F 87% 29.42 in 4.0 mi NNE 15.0 mph 24.2 mph N/A   Overcast
8:16 PM 33.8 °F 22.8 °F 30.2 °F 87% 29.42 in 4.0 mi NNE 18.4 mph 27.6 mph N/A   Overcast
8:36 PM 33.8 °F 22.8 °F 30.2 °F 87% 29.43 in 3.0 mi NNE 18.4 mph - N/A   Overcast
8:56 PM 33.8 °F 24.3 °F 30.2 °F 87% 29.43 in 4.0 mi NNE 13.8 mph - N/A   Overcast
9:16 PM 32.0 °F 21.2 °F 30.2 °F 93% 29.44 in 5.0 mi NNE 16.1 mph - N/A   Overcast
9:36 PM 32.0 °F 20.8 °F 28.4 °F 87% 29.44 in 7.0 mi NNE 17.3 mph 23.0 mph N/A   Overcast
9:56 PM 32.0 °F 21.6 °F 28.4 °F 87% 29.45 in 7.0 mi NNE 15.0 mph - N/A   Overcast
10:16 PM 32.0 °F 21.6 °F 28.4 °F 87% 29.46 in 10.0 mi NNE 15.0 mph - N/A   Overcast
10:36 PM 32.0 °F 22.1 °F 28.4 °F 87% 29.46 in 10.0 mi NNE 13.8 mph - N/A   Overcast
10:56 PM 32.0 °F 22.5 °F 28.4 °F 87% 29.47 in 10.0 mi NNE 12.7 mph - N/A   Mostly Cloudy
11:16 PM 32.0 °F 22.5 °F 28.4 °F 87% 29.47 in 10.0 mi NNE 12.7 mph 18.4 mph N/A   Mostly Cloudy
11:36 PM 32.0 °F 22.5 °F 26.6 °F 80% 29.48 in 10.0 mi NNE 12.7 mph - N/A   Mostly Cloudy
11:56 PM 32.0 °F 22.5 °F 26.6 °F 80% 29.48 in 10.0 mi NNE 12.7 mph - N/A   Overcast